Hauptseite
METAR-TAF:

METAR-TAF

Flughäfen :

Fliegerhorst Holzdorf

Holzdorf, Deutschland

Breite: 51-46N, Länge: 013-11E, Höhe: 79 m

Beobachtung

Neuester Wetterbericht von vor 31 Minuten, um 07:20 UTC
Wind 14 kt aus West/Südwest
Temperatur 13°C
Luftfeuchtigkeit 62%
Luftdruck 1018 hPa
Sichtweite 10 km oder mehr
Durchbrochene Bewölkung in der Höhe von 3500 ft

METAR: ETSH 220720Z 25014KT 9999 BKN035 13/06 Q1018 BLU

Zeit: 09:51 (07:51 UTC)


TAF: fehlend

Wetterbeobachtungen und Prognosen von mehr als 4000 Flughäfen (METAR und TAF Bericht).

Die verfügbaren Stationen werden durch gelbe und rote Markierungen auf der Karte dargestellt.

Führen Sie die Maus auf sie, um den Namen der Station zu sehen.

Darauf klicken, um die Beobachtung von Wetterbeobachtungen und Prognosen zu sehen.

Um die Karte zu ändern : klicken Sie auf den grünen Tasten mit einem schwarzen Kreuz Zum Vergrößern, auf den grünen Button mit einem Gedankenstrich zu verkleinern, oder auf die grünen Pfeile für benachbarte Karten.


METAR-TAF: